Wind_Speed
10 9 8 8 8 7 7 7 7 8 8 8 9 8 7 10 12 11 12 11 10 9 9 10 10 11 13 16 16 13 11 10 9 4 1 2 4 5 8 10 10 11 10 7 7 4 3 4 6 9 4 3 2 1 1 2 2 2 3 2 3 4 4 5 6 6 4 3 4 4 6 7 3 2 1 0 2 2 1 2 3 3 2 2 2 4 16 23
9 8 8 8 8 7 7 7 8 8 8 9 9 8 8 10 11 11 11 11 10 8 8 9 10 11 13 16 17 13 12 11 8 4 1 2 4 6 7 8 9 10 9 7 6 4 4 3 5 7 5 1 2 1 1 1 1 2 3 2 5 5 5 6 7 6 4 3 3 3 3 5 4 2 1 2 3 4 2 5 4 4 4 2 5 12 21 23
10 9 8 8 7 7 8 8 8 8 8 9 9 9 9 10 10 10 10 10 9 8 8 8 9 11 13 15 16 14 12 10 6 2 0 1 4 6 6 7 8 9 9 6 5 4 3 1 1 4 4 1 1 2 1 1 0 2 3 2 6 5 5 5 6 7 5 1 1 0 1 2 4 1 1 2 3 3 3 6 1 6 10 3 4 12 19 21
10 9 8 8 7 7 8 8 8 8 8 8 9 9 9 9 9 8 9 9 8 9 8 8 9 11 12 14 15 12 9 6 3 1 2 4 6 5 5 6 8 8 8 6 4 2 2 3 4 5 3 1 3 2 0 2 1 1 3 4 5 4 3 5 7 6 4 1 3 2 2 2 4 0 1 3 1 6 5 6 6 10 10 6 5 9 16 18
11 10 9 8 8 7 8 8 8 8 7 8 8 8 8 8 8 8 8 8 8 9 9 10 10 11 12 13 13 11 6 5 2 2 3 6 8 6 5 6 8 8 9 7 3 2 3 4 6 6 4 1 3 3 2 2 2 1 3 6 5 5 3 5 4 3 3 4 5 4 2 2 1 1 1 4 3 6 4 4 6 9 6 6 8 9 12 13
11 10 10 9 8 8 8 8 8 8 7 7 7 7 8 8 8 8 7 6 7 9 10 11 10 10 11 12 11 7 3 2 2 1 5 7 7 6 5 7 7 8 9 6 3 2 2 4 5 3 3 1 1 1 4 3 2 2 4 3 2 4 3 3 1 1 3 6 4 3 2 1 3 2 2 3 6 6 4 5 5 7 4 7 11 11 11 11
11 11 10 10 9 9 9 9 9 9 8 8 8 8 8 8 7 7 7 6 7 9 11 12 11 9 10 10 8 4 4 2 3 2 6 7 6 5 6 7 6 7 7 3 1 1 2 5 2 3 4 2 1 2 4 3 2 2 4 4 1 4 4 2 2 1 3 4 4 3 1 1 2 2 2 1 6 9 9 8 5 4 2 7 9 9 9 9
11 11 10 10 10 10 10 10 10 11 11 10 10 10 9 9 8 8 7 7 8 9 11 12 12 9 9 7 3 3 2 3 2 4 7 6 6 5 6 6 5 6 3 1 1 3 2 3 2 3 3 1 4 2 1 2 3 3 5 4 0 3 5 4 1 2 3 2 2 3 1 2 1 1 2 5 8 12 12 7 7 6 8 7 5 3 2 2
11 11 11 11 11 11 11 12 12 13 13 13 13 12 12 11 10 9 9 10 11 11 11 12 12 9 8 4 3 3 3 2 3 5 6 5 6 6 5 5 5 5 1 1 1 5 3 2 3 4 4 2 4 2 1 0 3 4 5 3 2 3 5 4 2 2 2 2 3 3 3 2 1 2 3 5 11 14 11 9 9 8 10 9 7 6 6 6
11 11 11 11 11 12 13 14 14 15 15 15 15 14 13 12 12 11 12 12 13 13 13 12 11 9 6 3 5 3 2 1 4 5 5 7 8 6 5 4 4 4 0 1 1 5 2 4 5 5 5 3 4 2 1 3 3 4 3 2 3 5 5 2 2 2 1 2 3 5 2 3 3 1 2 7 13 13 12 14 13 11 10 9 8 7 8 9
11 11 11 12 13 14 15 15 16 16 16 16 15 14 14 14 13 14 14 15 15 14 14 11 10 8 4 3 5 1 3 2 4 4 7 9 10 7 4 4 4 4 2 1 1 2 1 6 8 5 2 2 3 1 2 4 2 2 1 3 6 6 5 2 3 4 1 1 4 6 3 5 7 6 3 11 12 10 11 14 13 13 11 10 10 9 10 10
11 12 13 14 14 15 16 16 16 17 17 16 16 14 14 14 14 14 14 15 15 14 13 10 8 6 4 4 3 4 4 4 4 4 9 11 11 9 3 3 3 3 3 2 1 1 1 4 8 4 3 3 3 0 3 3 2 1 2 3 8 7 6 4 3 3 1 2 3 5 3 7 8 7 9 13 9 6 12 13 12 12 10 10 11 10 10 13
12 13 14 14 15 16 17 17 17 17 18 16 15 15 14 14 14 14 15 15 14 12 10 8 7 4 3 2 3 3 4 4 4 5 10 11 11 8 2 2 3 4 4 2 3 2 1 3 6 4 2 4 1 1 2 2 3 1 2 1 5 7 5 4 3 2 3 2 0 3 1 3 7 11 13 14 8 8 15 12 11 11 10 11 11 11 11 15
14 14 14 15 16 17 17 18 18 19 18 15 14 15 15 14 14 14 14 12 10 8 6 5 4 1 2 3 3 1 4 4 4 7 11 12 11 6 0 2 4 5 5 4 3 1 0 2 5 3 1 2 1 1 3 5 3 1 1 2 2 2 4 5 4 3 3 1 3 4 2 1 7 15 14 12 7 13 16 11 11 11 10 11 11 12 11 14
14 14 15 15 16 17 18 18 19 20 18 14 14 16 15 14 14 13 10 8 6 3 2 2 2 2 2 3 2 2 4 3 4 9 13 13 11 5 4 8 6 5 5 4 2 1 3 4 5 3 1 1 3 2 2 5 4 2 1 3 3 1 5 6 5 4 3 2 6 6 1 1 7 14 13 10 7 15 16 11 12 12 12 12 10 12 11 12
15 15 16 16 17 18 18 19 19 20 18 15 15 16 16 13 11 8 6 4 2 1 1 2 1 3 2 2 2 3 4 3 7 11 12 11 8 6 10 11 5 2 2 1 2 4 5 5 4 2 1 1 4 4 2 4 4 3 1 4 3 1 3 4 3 5 3 1 7 8 2 1 5 10 11 10 8 15 16 12 13 12 12 12 10 11 10 11
16 16 17 17 18 18 19 19 20 20 18 15 15 16 15 10 5 3 1 2 2 0 1 2 2 3 1 2 2 4 4 6 11 13 10 8 7 8 10 6 3 5 3 3 3 3 3 4 1 1 2 2 2 4 2 3 4 3 2 1 3 2 2 3 2 5 7 6 7 9 8 4 4 7 10 10 8 14 15 12 12 11 11 11 10 11 11 12
17 17 17 18 19 19 20 20 21 21 18 15 15 16 11 4 1 1 1 2 1 1 3 2 2 3 2 3 2 5 8 11 13 9 6 7 8 8 6 2 2 5 5 4 2 1 2 2 2 1 3 3 2 5 3 4 3 3 2 1 2 1 1 2 2 3 7 11 8 9 9 6 5 6 9 9 8 13 14 10 11 11 11 10 11 11 11 13
18 18 18 19 19 20 20 20 21 20 17 14 15 14 7 2 1 1 2 3 2 1 1 1 2 1 3 3 3 9 12 10 8 5 6 10 9 5 3 3 3 3 3 2 2 2 1 2 3 1 1 2 3 5 7 7 5 4 4 4 3 2 2 4 2 1 7 13 10 8 8 6 7 8 8 8 7 12 12 10 10 9 10 10 10 11 11 13
18 19 19 19 20 20 21 21 20 18 14 14 15 10 4 2 3 3 4 3 2 2 1 1 1 1 3 4 6 11 10 4 3 5 9 13 8 2 3 4 5 4 3 2 2 2 2 1 3 4 6 6 6 6 5 4 4 3 3 3 3 3 3 3 1 1 5 10 6 6 9 8 7 7 7 6 7 12 11 10 10 9 9 10 10 11 12 12
19 19 19 19 19 20 20 21 18 14 13 14 12 6 1 1 1 3 5 4 1 2 1 2 3 2 4 5 6 8 4 2 4 5 10 14 6 2 3 4 5 3 1 2 2 3 3 2 6 7 7 6 4 4 4 3 3 3 3 3 2 3 3 4 1 2 2 7 2 4 11 10 6 6 6 5 8 10 8 9 10 10 10 9 10 11 10 10
19 19 19 19 19 19 20 19 15 11 11 11 8 5 3 2 2 1 1 2 3 0 1 2 0 3 5 2 4 5 3 4 5 4 11 14 6 2 3 4 4 2 3 2 1 5 3 4 8 6 4 2 3 3 4 3 3 3 2 2 2 2 2 3 1 4 5 6 4 5 12 8 5 6 5 6 7 7 7 9 10 10 11 10 10 10 9 10
19 19 19 19 18 18 18 16 11 10 10 8 6 5 3 3 4 1 2 1 4 3 2 2 1 3 4 2 3 5 4 3 3 5 12 12 4 2 1 4 3 1 4 3 2 1 2 4 5 2 3 4 3 3 4 3 2 2 2 2 2 2 1 2 1 4 6 5 8 9 11 5 4 5 5 6 6 7 9 10 10 10 10 10 9 9 9 11
18 18 18 18 17 17 17 12 7 9 9 7 7 5 4 3 3 2 2 2 3 4 1 0 1 0 2 2 4 5 2 1 2 5 10 8 1 1 1 2 2 0 2 1 5 4 5 4 1 3 4 3 1 2 3 3 2 2 4 4 3 3 3 2 2 3 6 5 8 10 8 3 3 4 4 4 5 8 9 10 11 9 8 8 9 10 10 10
19 17 17 18 17 16 14 7 5 8 6 5 6 4 3 2 1 1 2 2 2 4 1 1 0 1 1 2 5 3 1 0 2 4 7 6 1 2 1 1 1 1 2 1 3 3 6 4 0 2 3 3 3 2 2 5 2 4 3 5 5 5 5 4 4 4 5 1 5 5 3 1 1 1 1 2 5 8 8 9 10 9 8 9 9 9 9 9
20 17 16 17 16 16 10 2 6 9 3 3 4 2 1 0 1 1 2 3 1 3 3 1 0 2 4 4 5 1 2 2 2 2 4 5 1 1 1 2 1 0 3 3 0 2 3 2 3 2 3 5 3 2 4 5 4 2 2 3 5 6 5 5 4 3 3 3 5 3 3 3 1 2 3 1 6 7 7 9 9 8 8 8 8 7 8 8
19 17 15 15 15 14 7 1 7 7 2 3 4 2 1 1 0 1 2 5 2 1 2 2 1 2 4 4 4 2 1 4 2 1 3 5 4 1 1 3 1 1 1 1 2 1 1 3 5 4 5 5 3 2 2 5 5 2 2 3 5 5 3 5 5 4 3 2 1 1 4 3 3 5 4 4 6 6 6 8 7 7 7 7 7 7 8 8
18 16 14 13 12 11 6 2 6 3 1 3 3 2 1 1 1 1 4 4 2 0 1 2 1 1 3 4 5 4 2 5 2 1 4 6 4 2 2 2 3 2 1 2 3 4 0 2 3 3 4 3 2 2 2 4 3 3 3 3 3 2 3 4 5 3 1 2 2 3 4 2 2 4 4 3 6 5 4 6 6 6 7 6 7 7 7 7
17 15 13 11 8 8 5 4 6 4 2 3 2 1 0 1 1 3 5 1 2 1 1 1 1 2 6 5 5 4 3 3 2 4 5 6 4 4 2 1 3 2 2 2 4 4 1 0 1 2 2 2 3 2 2 3 1 1 4 4 4 4 3 4 4 3 2 1 4 6 5 3 1 4 4 2 3 4 3 4 4 5 6 6 6 6 6 6
16 14 13 10 6 7 4 3 7 6 3 3 2 2 1 1 3 5 3 1 1 2 1 2 2 3 7 7 5 6 4 3 3 5 5 3 5 6 2 1 4 4 2 3 1 3 2 1 2 2 1 2 2 1 2 2 1 3 4 4 4 4 4 3 2 4 3 2 5 4 2 4 1 4 4 1 2 5 5 4 4 5 6 6 5 5 5 5
15 13 11 7 5 7 5 3 7 7 5 4 2 0 1 2 5 6 0 2 1 2 2 4 3 4 8 5 3 6 5 5 6 6 6 4 6 8 4 2 4 3 4 5 2 4 4 3 0 1 1 1 1 1 1 2 2 3 3 4 3 3 3 3 4 3 2 4 5 3 1 4 2 3 1 2 1 5 6 5 5 5 6 6 5 5 4 5
14 11 8 5 5 8 7 4 6 6 5 2 0 2 4 3 3 1 2 3 2 3 2 2 3 4 5 3 2 5 4 5 5 5 3 3 4 4 4 3 2 4 4 3 4 5 3 0 2 2 1 2 2 1 2 4 4 3 2 4 3 3 3 2 3 1 2 4 3 1 2 2 1 0 2 4 5 5 5 5 6 6 6 5 4 5 4 4
11 7 5 5 5 8 8 6 6 7 5 0 1 4 6 4 1 2 3 3 2 2 1 1 3 3 3 3 4 5 3 2 4 4 1 1 4 3 3 2 1 2 2 2 3 5 4 4 3 3 1 2 2 1 2 2 3 4 1 2 2 1 2 3 3 2 3 2 2 1 3 1 1 1 2 4 5 4 4 5 5 6 6 5 4 5 4 4
7 4 6 6 8 10 10 8 7 6 3 1 2 4 5 1 2 1 3 3 2 3 2 1 4 4 3 3 3 4 2 2 4 5 3 3 5 3 4 5 5 3 0 2 2 1 2 4 3 2 2 2 3 1 1 1 2 2 2 4 3 3 2 3 4 2 3 2 2 3 2 1 1 3 3 3 4 3 4 4 5 6 5 5 4 4 4 5
3 6 7 8 10 12 11 9 7 5 2 3 5 5 3 2 3 1 2 4 2 4 3 1 2 4 4 3 3 2 2 2 4 5 4 4 2 2 3 4 5 3 2 2 2 0 1 4 5 3 2 2 3 1 2 3 2 1 2 3 1 3 3 1 3 4 2 1 3 2 1 1 2 4 4 4 4 4 3 3 4 5 5 5 4 4 4 4
3 6 6 7 10 14 13 9 7 4 1 4 7 4 2 2 1 1 1 2 1 3 5 4 4 4 4 4 4 4 2 2 3 4 3 2 1 1 2 2 3 4 3 1 1 1 2 4 5 3 2 2 1 1 1 2 0 0 1 0 2 3 5 3 1 1 3 0 2 1 3 2 2 3 4 4 4 4 4 3 3 4 5 6 6 4 4 4
4 4 3 6 11 16 14 9 6 3 3 6 6 1 3 2 1 1 1 2 1 0 3 4 3 3 3 3 4 6 5 2 2 3 2 1 1 2 3 2 1 2 2 1 2 1 1 4 5 2 1 1 1 0 3 2 1 2 1 3 2 1 4 3 0 3 3 1 3 1 3 3 2 2 3 5 3 4 5 4 3 4 4 6 7 5 4 4
3 3 2 6 13 17 14 9 4 1 5 6 4 1 1 0 1 0 1 0 1 1 4 1 2 2 1 1 3 5 5 3 3 3 2 2 1 2 2 3 1 2 2 2 2 1 2 3 6 2 1 4 2 2 3 4 2 2 1 2 1 1 0 2 1 1 2 2 3 2 1 3 3 2 3 3 3 4 5 4 4 4 4 5 8 6 3 4
2 2 1 6 15 18 13 6 3 4 6 5 2 1 0 1 1 1 1 0 0 1 2 1 1 2 1 1 1 4 3 2 2 3 2 1 2 2 3 1 2 2 3 1 1 2 1 0 4 3 2 4 4 4 2 5 4 3 2 2 3 3 3 0 0 2 1 2 3 3 1 2 1 1 3 4 4 4 5 6 6 5 5 5 8 7 3 5
2 1 1 8 19 18 8 5 5 6 6 3 2 1 1 1 2 1 1 1 1 1 1 1 1 2 2 1 0 1 2 1 1 2 1 1 2 2 3 2 2 4 5 1 1 2 2 1 3 5 4 3 3 2 1 2 3 3 4 4 4 2 0 1 1 1 1 1 1 2 3 2 1 3 4 5 3 4 5 6 6 7 6 6 8 7 3 4
3 3 2 11 22 13 3 7 7 4 4 2 1 0 1 1 1 3 3 1 1 0 1 3 2 0 1 1 1 1 1 2 1 1 1 2 3 2 2 2 1 4 5 3 3 2 2 1 2 5 5 3 2 2 2 2 1 2 2 2 1 2 2 2 2 1 1 1 2 1 3 2 2 3 3 4 3 3 5 6 6 7 6 6 7 5 3 4
5 3 2 15 20 5 6 6 3 2 3 2 1 0 1 2 1 2 2 2 1 0 1 2 2 1 1 0 1 1 1 2 1 1 1 1 2 2 3 3 1 2 1 2 2 1 0 2 1 4 4 3 5 4 1 0 3 6 4 2 0 0 3 3 2 3 1 2 0 1 2 3 1 1 2 3 3 2 4 5 6 7 5 6 7 4 4 5
3 1 3 17 16 1 8 6 2 3 3 1 0 0 1 1 1 1 2 2 2 1 2 2 0 1 0 1 0 0 1 1 1 1 1 1 2 0 1 1 1 2 1 1 2 1 1 2 2 4 4 3 5 4 2 2 4 5 3 3 2 2 1 3 4 2 1 2 2 2 2 4 3 2 2 3 3 3 3 4 6 6 6 8 7 3 4 5
2 2 3 16 14 3 5 3 1 2 2 2 2 2 2 1 1 1 2 2 2 1 2 1 0 1 1 1 1 0 1 1 1 2 2 1 1 1 2 1 2 1 2 1 1 2 2 1 2 3 5 6 6 5 4 4 4 3 2 3 3 3 4 1 1 2 1 1 2 2 3 3 2 3 2 3 3 4 3 4 7 7 7 8 5 3 4 5
2 0 3 12 17 10 4 3 5 3 0 1 4 3 3 2 1 1 1 1 1 1 1 1 0 0 1 1 2 2 2 2 1 2 3 1 2 1 0 2 3 1 0 2 3 1 0 1 2 2 1 3 3 3 4 4 3 2 2 5 5 4 4 2 0 3 1 1 1 2 4 2 2 3 1 4 5 7 6 5 6 6 7 7 4 3 4 6
2 2 3 7 11 9 3 1 3 4 3 2 3 2 3 2 1 1 1 1 2 1 1 2 1 1 2 3 4 3 3 3 1 2 4 3 4 2 2 3 2 1 2 3 2 2 2 1 2 4 4 3 4 4 4 2 2 2 4 7 7 4 3 3 3 2 1 1 3 2 3 2 1 2 1 6 8 8 7 7 7 7 8 5 3 4 6 6
3 2 2 2 4 5 4 4 5 3 2 3 2 2 3 3 3 2 1 1 1 1 1 2 3 4 3 4 4 3 4 4 3 3 2 3 4 4 3 1 1 4 4 1 1 3 4 3 3 4 2 2 3 3 4 3 3 2 3 5 7 7 6 6 4 0 2 2 3 3 2 2 2 2 4 6 7 7 7 8 7 8 8 4 2 5 7 8
3 2 1 0 1 2 3 4 4 5 5 3 2 1 3 4 4 2 2 2 2 2 2 3 6 6 3 2 2 2 5 5 3 2 1 2 4 5 5 2 1 5 5 2 2 2 5 2 2 3 1 4 3 3 3 4 4 3 3 4 6 7 7 6 2 2 2 1 4 2 1 4 2 4 5 5 6 6 7 7 7 9 8 3 3 6 7 8
3 3 1 2 2 2 1 3 2 5 6 4 3 3 4 5 5 2 2 3 4 4 4 3 6 7 4 2 2 2 3 3 2 2 1 2 3 3 4 3 3 4 5 4 3 1 4 1 1 2 2 4 4 4 3 4 4 3 4 4 4 5 5 4 0 1 0 4 5 2 4 5 1 4 4 5 5 6 7 7 9 11 8 4 5 7 7 8
2 3 0 3 4 1 2 3 2 4 5 4 3 3 2 4 5 3 2 3 4 5 5 4 5 6 3 3 4 3 1 1 2 3 1 1 3 2 2 1 3 5 6 4 3 2 2 2 1 3 2 4 3 4 4 3 4 4 4 4 4 4 4 3 2 2 2 4 4 4 6 4 2 4 5 6 6 7 8 9 11 10 6 4 5 7 7 9
3 2 2 5 3 4 3 3 2 4 4 4 3 2 2 3 3 1 1 2 1 1 2 2 4 3 2 5 6 2 3 2 3 4 3 2 2 1 1 0 1 4 6 4 3 4 4 2 2 4 2 4 3 3 2 2 3 3 3 5 5 4 2 2 2 2 2 5 6 6 5 3 2 6 7 6 8 9 8 10 11 7 4 5 6 7 8 10
3 1 2 5 3 3 3 3 3 4 2 2 2 2 2 2 3 1 1 1 1 1 1 2 2 0 3 6 5 2 3 2 3 2 2 3 3 3 2 2 2 1 2 2 2 2 2 2 2 4 1 3 3 2 1 2 4 3 3 4 4 2 2 3 4 4 3 3 3 4 3 2 5 8 8 9 9 8 8 10 9 5 5 6 6 7 9 11
Wind_Direction
2 2 360 358 356 353 349 345 341 338 339 337 339 340 348 356 355 355 350 346 336 323 321 324 332 335 338 344 345 340 337 337 331 318 270 272 283 298 306 312 323 327 329 330 340 354 9 17 355 0 45 131 11 14 86 31 104 77 99 166 235 194 198 190 184 194 185 265 240 213 195 177 228 238 205 323 31 354 289 319 298 302 23 90 17 112 144 152
1 1 359 358 355 353 346 341 335 332 331 329 332 330 331 339 344 350 350 350 345 334 323 321 326 330 336 344 345 339 332 332 328 312 270 264 299 310 306 313 326 329 334 343 356 25 50 5 334 10 52 111 344 10 32 358 118 117 123 183 232 197 211 203 182 194 195 262 227 194 193 197 224 185 132 237 312 356 287 292 336 297 280 52 74 130 145 152
4 2 1 359 356 355 347 342 338 331 327 323 323 322 321 326 333 340 346 348 346 340 329 322 322 328 335 339 343 338 328 333 333 319 92 322 318 315 307 314 325 328 334 345 355 21 75 120 348 40 48 54 325 1 39 9 195 163 138 224 245 209 236 235 195 205 215 291 73 91 83 221 264 348 68 223 292 338 238 255 287 259 252 194 107 141 150 153
9 9 7 4 360 355 349 345 342 335 329 323 319 319 316 318 324 328 338 345 345 340 330 324 319 324 332 336 341 334 334 1 340 310 34 340 330 322 307 313 325 325 327 341 347 16 90 113 78 58 62 344 328 358 252 279 234 166 156 207 230 184 248 250 210 213 208 111 92 111 78 277 267 303 87 140 297 299 252 242 212 234 242 178 155 161 158 159
13 14 12 8 4 358 354 351 345 343 336 328 322 319 316 315 319 323 332 341 347 344 333 325 317 322 331 336 338 329 354 38 316 304 347 331 330 323 309 317 325 319 321 334 344 81 104 98 71 53 56 341 343 15 272 290 111 173 210 200 192 155 228 259 221 212 164 110 92 107 137 247 270 74 88 139 224 262 240 269 237 241 256 165 169 169 165 168
12 11 11 7 5 1 358 356 351 350 344 338 332 324 322 316 317 323 325 333 347 350 345 335 325 325 332 337 335 336 37 26 279 320 329 326 329 325 323 322 319 314 316 320 337 82 88 55 56 62 55 24 9 203 258 315 61 225 266 251 211 175 215 284 4 282 148 108 118 158 203 147 46 353 51 144 236 269 268 289 284 272 273 158 157 160 171 179
7 7 7 4 2 359 355 353 349 347 344 342 336 330 327 321 320 320 314 313 328 346 350 346 338 331 336 339 334 11 72 277 280 339 323 328 329 330 336 323 316 317 315 310 344 93 80 53 64 146 87 25 213 212 248 321 13 202 260 300 259 184 213 283 22 231 144 126 185 173 124 105 55 314 24 2 284 318 310 303 330 334 63 129 144 164 180 182
3 2 1 359 357 355 353 349 346 344 342 339 335 331 326 323 320 315 309 295 302 323 337 344 343 336 341 346 344 13 11 261 298 339 331 337 324 324 333 326 325 319 311 296 216 167 124 89 166 153 102 253 193 188 250 341 353 192 227 273 227 202 248 278 284 151 145 187 194 119 340 247 190 172 51 351 332 329 316 335 12 39 58 62 79 82 51 70
0 359 358 358 355 354 350 345 342 338 336 333 329 326 322 320 315 312 307 296 297 304 316 332 338 340 343 2 79 18 301 238 346 339 344 349 326 313 315 326 338 327 276 307 206 163 165 179 192 172 168 198 172 195 304 169 273 213 205 244 277 300 305 301 260 153 155 217 153 147 303 341 237 185 95 3 349 332 331 12 20 44 51 42 53 53 49 52
360 359 359 356 351 347 343 339 335 331 328 324 321 319 316 313 308 306 303 300 300 300 308 319 328 339 340 16 68 20 264 343 349 344 358 349 336 313 292 303 330 345 269 291 131 149 164 196 180 148 154 146 159 187 125 158 205 198 185 237 272 310 313 322 295 289 156 219 159 171 240 18 329 25 72 330 343 343 2 21 18 40 45 42 52 51 61 64
1 359 355 350 346 342 339 337 333 330 326 321 319 315 313 311 308 306 302 300 299 298 303 310 323 334 338 57 89 230 254 358 338 351 358 346 344 324 278 271 298 348 347 326 196 179 206 186 153 115 165 177 159 161 229 194 149 134 146 288 299 329 317 337 334 300 321 202 166 150 123 15 1 31 342 314 335 354 26 29 25 45 43 42 48 43 50 50
1 356 351 348 346 344 342 340 337 334 330 327 324 319 316 313 310 308 305 304 301 298 297 303 319 323 352 51 139 225 268 332 325 348 353 347 346 330 281 251 273 324 323 349 344 296 338 182 146 126 229 168 151 249 221 198 94 81 62 309 303 353 346 328 347 298 172 148 174 141 81 18 12 4 328 324 335 16 48 45 38 49 48 49 52 50 49 45
359 356 353 351 349 348 347 345 342 339 335 331 328 324 320 315 313 311 308 307 303 299 293 297 313 319 23 1 236 237 272 310 326 344 348 344 346 338 270 239 297 313 299 309 340 346 30 198 153 159 187 121 187 223 112 64 57 288 57 57 306 357 347 315 1 349 137 121 252 150 169 11 9 347 341 343 347 58 59 50 49 55 56 58 59 60 56 50
359 357 355 353 351 349 347 346 345 342 338 332 328 326 321 316 313 309 308 307 305 304 295 300 317 8 83 271 260 285 279 302 335 345 347 342 348 356 349 330 317 301 291 280 300 342 91 181 134 114 84 99 226 137 50 11 21 295 2 33 355 359 290 306 360 26 109 55 26 104 185 168 21 354 353 349 360 74 67 53 59 61 61 63 62 65 62 54
357 355 354 352 349 346 345 345 344 343 340 332 329 328 322 317 310 307 308 308 314 318 307 321 329 86 70 296 289 327 298 317 350 348 348 343 350 360 330 327 310 283 288 277 257 110 116 135 112 84 280 347 48 74 358 346 9 29 331 304 345 160 268 320 3 29 84 20 28 71 162 162 40 2 355 353 18 76 75 62 64 63 65 66 64 66 66 61
354 352 350 348 346 344 342 342 341 342 339 331 330 329 323 318 310 307 307 316 351 348 353 27 84 98 77 302 319 346 331 353 347 339 340 342 349 345 332 331 327 317 299 252 161 130 96 92 82 72 165 51 71 89 26 357 340 354 70 248 279 189 275 330 8 3 18 52 18 39 81 35 17 355 357 5 32 75 78 69 67 67 67 67 66 67 65 61
351 349 347 346 345 343 340 339 338 338 337 331 330 329 326 324 313 304 334 31 42 13 80 105 110 83 49 301 337 338 329 325 327 329 334 348 347 334 336 340 10 18 48 86 114 121 52 50 63 323 48 54 90 97 50 330 299 315 31 241 260 205 237 310 337 355 17 56 37 46 79 65 348 349 12 14 33 73 78 72 72 73 70 70 68 65 60 55
348 346 345 344 343 342 339 337 335 336 336 332 332 331 327 328 341 101 75 51 30 56 89 99 60 61 317 335 352 303 306 310 321 336 352 358 344 336 348 18 18 14 38 44 47 83 3 20 68 10 11 12 59 103 157 234 221 223 223 213 277 272 216 264 277 331 32 56 53 59 72 57 16 11 25 17 34 71 77 76 77 73 71 71 64 62 56 51
344 343 342 342 342 341 338 336 335 336 334 335 337 332 321 319 57 90 61 43 49 50 68 304 6 85 276 312 300 304 312 310 328 6 16 360 346 347 34 46 27 42 57 13 319 1 33 45 59 99 238 253 201 168 196 211 179 182 195 170 203 245 254 239 252 319 83 70 48 63 79 58 33 22 25 16 37 71 76 75 76 71 71 67 61 59 53 50
341 340 338 339 340 338 337 336 336 337 337 340 339 333 331 9 5 345 346 19 107 128 78 220 190 248 303 315 315 328 333 329 15 35 13 359 349 1 35 21 26 49 78 190 261 5 79 147 244 225 222 231 229 209 194 179 143 123 145 155 198 207 274 270 157 7 103 85 45 72 84 59 41 27 14 6 47 68 70 73 72 69 67 62 61 57 52 53
338 337 336 337 338 337 336 335 337 342 341 341 346 356 73 81 1 315 324 335 220 124 35 239 198 256 286 293 322 348 0 2 15 33 11 356 352 359 323 20 43 27 4 216 247 8 63 205 241 234 228 233 237 197 147 122 110 87 154 182 277 207 246 273 148 332 32 92 105 107 78 54 36 35 11 12 58 61 56 68 66 61 62 57 57 55 54 57
337 335 335 336 338 337 335 336 340 345 347 349 12 65 109 118 119 232 317 320 286 335 6 282 185 301 287 279 338 11 55 14 348 351 1 355 4 16 315 48 67 279 337 9 309 358 13 245 247 244 211 141 67 119 126 109 111 86 127 153 291 245 228 282 329 360 20 94 152 114 82 60 20 39 28 24 59 59 40 56 59 59 61 54 52 52 54 56
336 335 335 335 338 338 336 338 340 348 4 21 46 79 100 99 112 122 94 85 298 314 8 6 60 323 324 22 17 19 48 35 317 307 352 1 14 34 34 65 61 284 357 21 179 276 299 255 255 242 130 119 57 50 97 89 88 115 141 157 255 254 172 261 319 25 25 88 142 118 90 71 15 38 42 24 48 65 53 58 60 59 62 57 55 54 53 55
337 335 334 335 339 340 336 337 345 2 21 48 57 78 112 108 119 102 72 87 311 305 300 227 162 199 325 350 2 22 65 96 251 298 351 15 23 13 82 104 67 9 330 32 156 192 244 251 238 74 75 136 153 19 104 130 309 283 189 191 217 209 177 177 142 92 45 62 139 120 87 60 14 39 55 25 36 58 56 61 59 51 57 59 58 57 56 56
339 336 335 336 339 341 339 340 11 11 19 60 56 70 105 92 162 128 67 75 330 308 306 244 153 66 291 341 353 1 142 287 235 275 343 20 3 338 14 142 82 281 250 143 135 234 264 270 235 80 52 78 135 262 222 169 244 302 242 208 194 171 152 119 107 109 76 27 208 147 96 313 359 54 117 31 44 58 53 57 55 43 46 52 53 56 56 57
339 337 337 337 339 344 344 359 6 358 7 52 34 31 103 91 228 166 73 62 6 304 338 314 149 356 330 350 349 347 81 351 275 285 355 17 354 111 25 292 19 338 206 173 175 253 274 338 47 104 95 67 73 272 249 160 136 300 270 183 147 121 116 124 121 119 126 218 230 174 158 184 166 210 214 124 72 69 57 56 53 42 42 47 54 57 53 54
338 338 341 340 342 351 358 358 343 350 34 4 1 9 198 204 244 185 57 39 5 288 355 311 308 19 338 335 352 70 44 314 320 14 14 5 337 78 38 300 308 324 192 128 339 275 244 350 24 55 73 58 35 314 254 135 120 241 239 122 118 109 128 167 159 178 213 232 279 129 124 127 173 202 201 137 91 72 60 55 48 43 41 46 56 59 56 55
338 339 344 345 347 360 15 10 348 8 62 339 1 46 164 200 246 150 79 49 328 349 53 302 311 36 334 338 22 66 291 311 36 328 344 26 4 17 24 281 199 260 329 107 269 269 262 8 13 48 52 29 297 279 228 130 105 243 205 116 107 124 160 161 149 178 275 27 261 212 142 115 213 180 162 130 102 85 72 64 55 46 40 46 57 58 59 59
340 340 345 349 352 3 10 17 14 22 6 348 15 18 280 231 334 64 75 90 295 20 162 316 20 328 342 1 18 23 344 360 44 304 333 43 29 32 65 216 148 144 341 108 221 255 14 213 205 105 66 274 259 268 208 148 52 199 137 91 57 64 77 92 116 133 62 53 234 227 172 147 234 182 168 157 131 132 116 89 76 53 42 46 56 60 58 57
341 341 344 350 2 4 356 10 15 11 351 339 317 296 269 47 56 63 47 252 307 339 257 28 13 327 8 24 347 355 24 358 330 328 350 27 3 20 77 184 99 112 347 15 214 248 320 282 202 108 114 214 224 282 165 141 131 135 103 54 41 40 44 49 69 98 77 265 250 255 176 125 153 195 171 202 181 148 135 115 89 57 45 42 52 66 60 56
341 342 345 358 19 12 5 349 358 359 347 329 289 285 53 20 63 85 61 258 297 334 8 23 351 5 32 42 329 344 14 335 331 9 13 2 0 10 26 21 40 51 7 8 337 304 357 23 289 320 317 113 75 39 71 50 62 108 86 51 41 346 18 28 355 50 102 256 265 289 47 103 138 202 138 11 56 119 123 120 100 69 46 35 49 68 63 62
342 345 354 20 26 15 13 352 347 353 344 330 145 76 74 33 20 94 283 317 338 338 14 339 325 8 13 18 350 331 340 335 357 48 40 18 33 24 27 27 3 11 2 345 326 336 7 357 305 324 341 55 58 14 1 9 38 53 40 58 45 339 3 354 318 337 203 247 255 318 12 65 104 349 66 70 86 97 102 110 109 88 59 38 47 69 68 66
344 358 30 44 24 11 10 359 350 352 343 356 98 52 72 71 323 247 286 328 348 330 359 305 322 348 336 357 358 326 335 344 359 37 82 75 64 33 3 12 29 26 338 306 342 353 341 304 337 10 340 23 74 67 350 334 10 3 344 104 100 58 27 305 278 276 271 249 228 328 21 77 124 74 102 110 110 104 96 106 110 97 77 44 50 81 77 62
353 48 68 49 27 11 6 0 351 349 351 90 76 45 61 57 246 239 308 283 288 334 5 20 325 341 26 35 337 326 18 354 348 21 8 27 49 10 338 352 14 40 13 350 5 39 1 301 327 18 308 3 43 88 134 183 8 339 174 127 132 157 152 262 237 233 272 260 290 333 28 191 184 117 131 133 122 107 88 94 101 96 80 44 51 90 83 59
35 97 72 44 26 10 2 359 351 350 17 80 60 62 90 251 254 176 299 272 298 330 321 350 4 12 13 348 330 1 55 320 345 32 23 30 60 359 341 336 349 24 56 9 321 120 76 265 272 301 289 32 27 305 108 76 35 289 154 91 63 182 149 201 197 181 211 290 313 331 84 48 95 121 132 113 90 77 65 61 86 92 68 43 42 77 86 59
129 114 65 37 19 7 1 0 354 354 70 88 61 56 162 218 250 166 232 297 350 322 322 351 35 37 349 319 335 4 17 307 345 28 28 51 114 330 347 290 322 20 51 75 283 350 26 279 289 329 334 65 87 260 21 34 321 79 77 190 246 177 118 107 260 35 72 38 278 142 115 77 98 154 166 135 103 83 72 45 76 94 63 42 32 48 86 60
152 140 64 28 12 3 358 357 353 1 74 85 79 96 212 197 91 168 239 327 304 18 23 11 7 22 349 315 318 333 343 334 356 26 17 19 41 1 354 308 310 39 18 241 253 275 130 276 301 9 30 299 202 160 23 25 108 71 348 235 238 95 97 102 318 352 31 231 262 99 132 174 176 187 179 157 122 72 61 30 59 91 69 39 24 34 82 60
159 152 84 16 4 357 354 353 349 45 77 69 78 159 205 68 30 205 200 356 269 44 60 46 314 22 65 307 303 313 340 351 355 20 22 348 14 75 38 327 314 69 352 313 288 291 116 285 304 340 186 299 340 73 11 342 28 71 217 223 77 82 334 17 41 319 344 279 289 342 136 194 199 192 176 143 69 42 34 20 31 56 61 39 18 20 63 54
131 106 32 359 355 350 349 351 9 62 69 62 84 178 99 317 292 248 211 42 110 77 69 210 292 14 85 161 288 305 344 6 346 14 57 25 3 76 81 346 295 355 343 316 226 279 70 107 293 290 252 314 358 51 9 323 342 15 13 355 30 130 171 284 110 176 248 276 289 323 319 240 239 145 124 102 60 37 24 15 16 21 37 34 10 5 32 42
112 44 270 348 350 344 349 27 42 53 65 88 164 176 9 300 278 309 316 354 69 90 51 192 200 354 330 331 319 301 355 27 331 4 18 2 357 37 60 38 309 321 330 1 106 334 5 117 259 295 331 357 1 32 18 285 309 353 25 16 350 339 103 358 37 107 127 223 228 314 303 249 63 44 94 102 71 51 39 21 9 4 13 21 7 2 28 39
82 37 266 342 346 337 37 52 40 59 85 96 136 165 21 44 317 341 344 4 65 158 137 148 150 58 334 354 349 255 331 343 352 8 319 359 28 23 25 48 330 315 335 19 44 5 3 113 234 296 334 356 298 285 274 258 222 117 79 50 303 300 30 42 318 328 67 137 174 210 287 248 86 38 83 95 59 48 48 32 8 357 3 12 3 6 47 40
70 56 294 345 347 349 94 52 8 76 90 82 59 349 6 49 57 352 348 18 46 38 62 99 116 115 159 227 310 240 314 319 310 13 351 352 25 11 348 9 332 282 341 26 334 312 99 94 53 285 286 282 284 294 310 318 91 97 79 46 66 344 75 106 249 281 349 352 129 136 288 261 208 49 80 77 38 21 48 42 10 352 360 4 358 19 53 34
74 152 324 354 350 93 91 43 334 29 41 242 282 40 347 43 77 339 352 15 17 18 24 34 110 57 115 203 299 238 295 274 217 21 7 321 353 28 259 336 300 265 50 22 310 320 56 58 15 298 295 314 314 328 13 43 63 67 37 30 45 340 11 156 183 197 280 322 11 55 301 265 217 148 113 91 49 18 36 39 10 353 357 357 355 22 38 21
105 210 311 4 10 106 104 65 125 39 343 274 35 24 345 30 90 15 1 1 3 68 55 12 150 27 347 147 107 252 299 359 16 24 47 34 359 104 186 244 314 342 52 31 300 348 344 341 47 1 342 346 344 349 351 348 29 51 6 6 18 9 9 348 169 57 14 274 88 127 259 268 170 148 120 86 49 20 27 27 9 358 352 348 352 17 16 3
71 131 276 6 29 64 108 149 144 128 210 36 48 18 353 24 74 21 60 56 8 134 108 356 356 58 337 67 49 352 357 30 344 358 40 14 314 337 309 316 327 3 299 273 292 339 252 203 76 82 358 313 309 312 311 315 350 26 6 1 8 27 19 337 309 47 24 285 52 159 222 270 153 171 113 43 24 7 7 5 359 353 344 343 358 15 1 355
81 55 312 342 22 51 80 133 101 110 134 101 59 15 14 33 335 316 125 93 13 65 75 345 329 24 24 31 27 356 356 17 20 35 32 339 296 290 320 322 302 267 273 286 336 60 103 48 56 123 156 216 236 263 293 320 8 350 344 353 359 2 7 58 88 63 155 301 327 220 199 286 248 199 9 17 9 358 351 347 346 341 340 349 18 6 355 352
86 77 14 328 351 27 35 17 40 69 115 114 90 11 358 347 325 335 100 86 14 27 48 40 37 33 9 12 23 348 329 352 28 50 18 304 285 286 305 314 286 313 313 306 40 70 83 27 20 96 111 264 245 290 329 39 75 52 7 358 358 356 14 67 84 287 134 82 309 253 191 298 297 83 34 7 358 351 342 340 339 335 337 354 20 358 352 347
66 130 165 92 41 36 17 6 41 59 45 70 103 30 7 7 10 15 338 340 18 19 26 39 29 23 355 332 21 355 337 353 13 12 324 308 320 327 334 331 318 345 3 25 4 75 103 43 343 100 44 327 360 9 14 76 87 62 49 21 7 15 37 70 104 216 121 122 273 268 326 300 325 47 23 359 352 341 333 333 333 331 334 355 8 356 350 342
74 111 317 10 85 133 358 345 60 67 40 44 66 37 30 30 26 15 317 354 6 1 32 38 355 353 348 336 73 61 352 355 339 309 323 348 338 354 1 340 323 0 29 31 355 77 116 17 318 112 43 353 12 11 25 92 105 63 41 28 14 27 48 67 143 233 238 266 263 317 329 304 25 45 351 343 342 329 331 337 333 331 337 3 2 347 342 337
107 139 184 52 61 70 23 6 55 69 34 33 51 31 40 44 22 1 1 31 12 346 23 35 329 327 353 33 75 94 279 226 221 258 230 50 357 8 28 330 302 341 13 27 341 342 35 353 345 86 35 328 356 31 34 70 110 101 53 21 12 17 37 46 11 352 345 292 289 343 319 293 68 33 338 336 341 337 338 334 327 328 343 4 349 338 336 334
102 137 141 102 54 355 5 11 55 79 36 14 24 359 16 28 5 348 9 28 70 15 7 348 305 310 26 43 59 46 276 203 184 232 205 145 52 26 21 12 267 321 352 18 346 354 28 8 8 57 36 295 334 48 29 9 79 96 32 2 360 1 12 12 342 324 286 285 306 331 315 295 12 352 333 338 341 336 332 324 321 332 11 1 342 336 335 335
97 62 73 102 76 359 1 360 32 68 54 356 357 331 355 341 302 182 103 19 74 127 215 248 258 99 48 30 35 355 275 218 190 230 187 139 96 79 73 66 83 20 346 13 13 15 61 67 30 46 39 285 323 5 266 336 357 315 314 341 326 316 13 354 318 297 269 270 294 299 294 326 346 338 334 335 335 336 333 322 321 346 13 352 340 337 337 340
Height
812 811 811 810 810 809 809 809 808 808 807 806 806 805 805 804 804 803 802 801 800 799 799 799 798 798 797 796 794 793 792 791 791 791 791 791 791 791 790 790 790 789 788 787 786 786 786 786 787 786 785 786 789 789 789 790 792 793 801 809 810 812 812 804 802 804 800 793 794 800 804 800 797 799 800 799 800 799 801 802 802 802 802 805 804 805 806 807
812 812 811 810 810 810 809 809 808 808 807 807 806 805 805 804 803 803 802 801 800 799 799 799 798 797 797 796 794 793 792 791 791 791 790 791 791 790 790 790 789 788 788 787 786 786 786 787 787 787 787 788 791 790 790 792 792 795 806 810 807 806 803 799 796 796 797 792 792 799 803 802 798 798 799 797 799 801 801 800 803 802 801 804 805 806 807 809
812 812 811 811 810 810 809 809 808 808 807 807 806 805 805 804 804 803 802 801 800 800 799 799 799 798 797 796 794 793 792 791 791 791 791 791 791 790 790 789 789 788 788 787 787 786 786 787 787 788 788 789 792 792 791 792 793 797 804 805 802 801 799 798 796 793 795 795 793 798 804 803 800 800 800 798 799 802 801 799 802 801 798 802 807 808 809 810
812 812 811 811 810 810 809 809 808 808 807 807 806 805 805 804 804 803 803 802 801 800 800 799 799 798 797 796 795 794 792 792 792 791 791 791 791 790 790 789 789 788 788 787 787 786 786 787 787 788 789 790 794 794 792 793 795 798 801 799 797 802 798 793 794 793 796 799 796 799 802 800 800 801 800 800 801 800 799 799 800 797 795 801 808 809 809 811
813 812 812 811 810 810 809 809 808 808 807 806 806 805 805 804 804 803 803 802 801 801 800 799 798 798 797 796 795 793 793 796 794 791 791 791 790 790 790 789 788 788 788 787 786 786 786 786 787 789 791 792 794 794 794 796 796 796 797 795 796 802 797 790 795 797 798 799 797 799 799 799 801 802 802 803 803 799 799 800 800 797 797 801 806 808 810 811
813 812 812 811 811 810 809 809 808 808 807 806 806 805 805 804 803 803 802 802 801 800 800 799 798 797 796 795 795 793 795 797 793 791 791 791 790 790 789 789 788 788 787 787 787 786 786 787 787 790 793 793 796 795 795 798 798 796 795 796 798 801 796 793 797 799 799 796 795 798 799 801 801 801 808 807 803 802 802 803 802 800 800 801 803 807 809 809
813 812 811 811 810 810 809 809 808 808 807 806 806 805 804 804 803 803 802 802 801 800 800 799 798 797 796 795 794 794 797 796 791 792 792 791 790 790 789 789 788 788 787 787 787 787 788 788 788 792 794 794 797 796 796 798 798 797 796 795 799 801 797 796 798 799 799 795 796 801 800 801 800 802 809 808 806 807 805 804 803 802 802 802 804 807 807 809
813 812 811 811 810 809 809 808 808 807 806 806 805 804 804 803 803 802 802 801 801 800 799 798 798 797 796 795 795 796 797 793 791 792 791 791 790 790 789 789 788 788 788 787 787 788 788 789 790 794 795 795 798 797 797 798 796 797 796 796 798 800 796 797 799 797 797 797 800 802 799 800 804 806 807 808 811 810 807 806 805 804 805 807 809 811 813 814
813 812 812 811 810 809 809 808 807 806 806 805 804 803 803 802 802 801 801 800 799 799 799 798 798 796 796 795 796 797 795 792 792 791 791 791 790 790 790 789 788 788 787 788 787 787 788 790 791 792 793 796 798 796 797 797 796 796 796 796 796 796 796 797 796 794 796 798 799 798 796 802 809 807 806 810 814 812 809 807 807 807 808 812 814 816 817 818
814 813 812 811 810 810 809 808 807 806 805 804 803 802 802 801 801 800 799 799 798 798 797 797 797 796 796 795 797 798 793 791 791 791 791 791 790 790 789 789 789 788 788 788 787 787 788 788 789 790 791 795 797 797 798 796 796 797 798 797 796 797 798 797 794 795 798 797 797 797 797 804 808 806 810 815 817 816 812 810 812 812 813 817 817 818 819 819
814 813 813 812 811 810 809 808 806 805 804 803 802 801 800 800 799 798 798 797 797 796 796 796 796 796 795 795 798 798 791 791 791 790 791 790 790 789 789 789 789 788 788 787 787 787 787 787 788 789 790 793 796 798 798 797 797 798 798 796 796 798 797 797 795 796 799 797 799 798 800 808 808 813 823 824 823 822 819 819 820 819 821 822 822 822 822 823
815 814 813 812 811 810 809 807 806 805 803 802 801 800 799 798 797 797 796 795 795 794 795 795 795 795 795 795 796 794 790 791 791 790 791 790 789 789 788 789 789 789 788 788 788 787 787 787 787 788 791 792 794 796 795 797 799 798 799 796 794 795 793 796 798 799 799 796 801 800 800 815 822 828 834 828 827 826 824 826 827 826 827 826 826 827 827 828
816 814 813 812 811 810 808 807 806 804 803 801 800 799 798 797 797 796 795 794 793 793 793 794 794 794 795 795 793 791 791 791 791 791 790 789 789 788 788 789 788 788 788 788 788 787 788 788 788 789 791 792 793 795 795 798 799 797 800 800 797 796 793 798 801 800 800 798 803 800 798 821 837 837 834 831 829 827 827 831 831 831 831 830 830 830 831 832
816 814 813 812 811 810 808 807 805 804 802 801 800 799 798 797 796 795 794 793 792 792 793 793 794 794 795 794 791 790 791 791 791 790 790 789 789 788 788 789 788 788 788 788 787 787 787 787 789 790 792 794 794 795 795 798 799 797 799 803 806 800 792 799 805 800 798 799 804 799 798 824 844 840 835 835 831 825 830 836 835 834 834 834 834 834 835 836
816 815 813 812 811 810 808 807 805 804 802 801 800 798 797 796 795 794 793 793 792 792 792 793 793 794 796 794 790 791 791 790 791 790 790 789 789 788 788 788 787 787 787 787 787 787 787 787 788 791 794 796 795 795 796 797 800 801 799 799 808 806 794 799 807 804 800 800 803 797 801 826 843 843 840 838 833 828 833 839 837 838 837 837 837 837 838 840
816 815 813 812 811 809 808 806 805 803 802 800 799 798 796 795 794 793 793 793 792 792 792 793 793 794 797 795 791 791 791 791 791 790 790 789 789 789 788 787 787 787 787 787 787 787 787 788 792 796 795 795 796 796 797 800 801 805 804 797 802 805 799 799 804 808 804 799 803 804 815 838 845 845 844 841 837 832 835 841 841 840 841 841 841 841 842 842
816 814 813 812 810 809 807 806 804 803 801 800 798 797 795 794 794 793 793 793 793 793 793 793 794 795 796 793 791 792 792 792 791 791 790 789 789 789 788 787 787 787 786 787 787 788 788 790 796 798 796 800 801 798 801 804 798 802 809 803 804 807 805 800 799 809 809 804 814 822 836 852 851 849 847 844 841 836 839 844 844 844 844 844 844 844 845 846
815 814 813 811 810 808 806 805 804 802 800 799 798 796 795 794 794 793 793 793 793 793 793 794 794 797 797 793 794 795 793 792 791 791 790 789 789 788 788 787 787 787 787 789 788 789 790 793 798 797 798 802 801 798 799 800 794 794 801 800 803 808 809 804 800 809 813 816 829 833 844 857 854 852 849 847 845 840 844 846 846 847 846 847 847 848 850 850
815 814 812 811 810 808 806 805 803 801 800 798 797 796 794 794 793 793 793 793 793 794 796 797 797 799 799 796 797 795 793 792 791 790 790 790 789 788 788 788 788 788 789 791 790 792 794 794 798 797 796 796 796 796 792 793 794 795 799 800 801 803 806 806 806 815 819 828 844 843 849 858 855 854 852 851 848 844 847 848 848 850 849 851 852 852 854 854
815 814 812 811 809 807 806 804 802 801 799 798 797 795 795 796 796 795 794 794 797 798 799 800 800 800 798 797 797 794 792 791 791 791 791 790 789 788 789 789 789 789 792 794 792 796 798 796 797 795 793 793 795 798 797 799 802 800 801 802 805 806 805 805 809 820 820 830 852 854 853 859 857 857 856 852 851 848 850 850 851 853 853 855 856 857 858 859
815 813 812 810 809 807 805 803 802 800 799 798 796 796 798 800 801 800 799 798 800 801 800 801 802 800 798 798 797 795 794 792 792 792 791 791 790 788 790 790 790 791 796 801 798 798 800 797 795 795 799 802 804 807 805 804 803 802 801 802 807 807 806 809 812 819 818 827 852 855 852 859 859 859 858 856 853 852 855 854 855 857 858 859 860 861 862 863
815 813 811 810 808 807 805 803 802 801 800 799 797 799 801 802 803 803 803 800 800 801 801 801 801 800 799 799 798 797 797 795 793 792 792 791 789 790 792 792 793 794 799 803 798 797 800 796 793 801 811 811 810 812 806 803 803 803 804 803 805 806 808 813 816 821 820 827 849 853 852 860 861 858 859 858 857 858 861 860 861 863 863 864 864 864 866 866
814 812 811 809 808 806 805 803 802 801 800 799 799 801 802 803 803 803 804 803 801 800 800 800 800 800 799 798 799 798 797 799 797 794 793 792 791 795 795 793 796 797 798 798 796 799 798 794 800 810 813 807 805 809 805 803 803 803 805 803 802 807 807 803 811 824 825 827 842 849 852 860 859 859 859 858 860 863 864 865 866 867 867 867 868 868 868 868
814 812 810 809 808 806 804 803 802 802 801 801 801 802 803 803 803 803 804 807 805 801 800 801 801 801 800 799 799 798 799 802 801 797 795 794 795 798 796 797 799 797 799 802 801 800 795 800 812 813 809 805 801 804 804 801 801 802 805 801 798 804 805 804 814 824 829 835 839 836 845 860 862 860 861 859 861 866 867 869 869 870 870 870 870 870 871 872
814 812 810 809 807 805 804 803 802 803 802 803 803 803 804 803 804 804 804 807 806 801 800 801 801 801 800 800 799 800 801 801 801 799 798 798 798 798 798 801 800 795 800 806 805 799 797 808 816 806 803 805 800 800 801 800 801 800 801 804 802 801 802 809 815 816 824 836 834 820 824 852 865 861 862 861 864 870 871 872 873 873 873 872 873 874 874 875
813 811 810 808 806 805 803 803 803 803 803 803 804 804 804 803 804 804 804 807 805 802 801 801 801 801 800 801 801 801 801 800 801 800 799 799 799 799 798 801 802 799 801 806 803 800 803 810 812 803 801 803 800 799 802 804 802 798 805 814 810 805 804 807 809 808 811 818 824 818 812 840 867 861 859 864 867 874 874 875 877 875 875 875 876 877 876 877
813 811 810 808 807 804 803 804 804 803 803 804 804 804 804 804 804 803 805 809 808 806 803 801 802 801 801 803 803 801 801 801 800 800 801 800 800 800 798 800 801 801 805 805 798 801 806 804 805 804 801 801 798 798 805 808 800 798 813 819 810 807 807 807 807 805 808 811 820 825 816 835 865 861 856 865 870 875 877 878 880 878 878 878 878 880 879 878
812 811 809 808 807 804 805 805 804 804 804 804 804 804 804 804 804 803 805 812 812 807 805 803 802 801 803 804 804 803 804 804 801 800 802 801 800 800 797 800 801 800 807 805 796 803 809 802 801 804 801 801 801 804 812 810 801 805 819 821 815 814 812 813 813 809 818 817 811 823 822 826 854 860 855 864 871 877 880 881 883 881 880 880 880 881 881 881
812 810 809 808 806 806 806 805 805 805 804 804 804 804 804 804 804 804 808 814 812 806 807 804 800 804 807 804 805 808 806 806 805 803 803 802 801 800 800 804 805 803 808 808 800 802 810 809 809 807 802 803 806 811 817 810 805 813 822 822 820 822 820 820 818 814 823 819 805 817 819 816 846 864 859 863 869 875 881 882 883 883 882 881 882 882 882 882
811 810 809 808 807 806 806 805 806 805 804 805 804 804 805 804 805 808 814 815 810 809 808 804 805 812 813 805 804 810 809 809 812 808 804 804 803 803 807 809 807 805 807 809 805 805 813 815 815 812 808 810 813 817 821 817 815 819 819 815 814 819 822 822 824 822 819 813 808 822 824 813 833 856 859 864 868 872 879 882 883 884 883 882 883 884 884 883
811 809 808 807 807 807 806 806 806 805 805 804 804 805 804 806 809 813 818 816 812 812 809 810 816 818 819 817 812 813 813 812 815 811 806 809 809 807 809 809 808 804 801 803 803 805 812 811 811 815 816 817 814 814 821 824 823 820 812 808 806 810 815 816 821 820 811 807 813 830 831 815 824 850 866 872 874 874 877 880 884 884 883 883 883 884 885 884
810 809 808 807 808 807 807 807 806 806 805 804 805 805 805 809 812 815 818 814 812 816 816 820 824 822 825 826 821 821 821 815 817 818 818 820 820 822 823 823 821 809 801 808 807 802 805 808 813 816 817 819 812 805 812 818 817 812 807 806 803 804 807 803 807 816 811 806 818 832 827 821 844 869 877 878 878 877 877 879 882 884 884 884 884 885 885 885
810 809 808 808 808 808 807 807 806 806 805 805 806 805 807 811 814 823 824 815 816 824 826 827 827 828 828 821 821 828 826 819 819 822 825 824 823 828 832 835 834 819 811 817 816 807 802 805 812 810 811 819 814 803 802 806 808 807 806 806 802 805 808 801 807 819 814 808 824 834 823 831 864 880 878 880 880 879 879 880 881 883 884 884 884 885 885 885
810 809 808 809 809 807 807 807 806 806 805 805 805 806 810 813 820 830 827 821 828 831 831 834 830 827 826 822 827 832 823 820 823 821 821 821 820 825 828 830 833 828 821 819 821 822 810 802 806 806 809 816 815 812 811 809 810 814 818 814 806 806 806 803 804 805 806 810 823 829 825 840 866 874 877 882 880 880 881 880 882 883 884 884 884 885 886 886
809 809 809 809 808 808 807 806 806 806 805 806 807 809 813 818 825 831 828 830 836 832 832 839 832 820 820 825 833 835 825 820 825 823 821 824 828 832 832 832 836 835 827 819 823 830 818 806 810 816 820 819 815 820 824 815 809 820 826 815 808 810 808 815 825 826 826 821 822 837 852 867 876 876 880 881 880 883 882 880 883 883 884 885 884 886 887 887
809 809 809 809 809 808 806 806 805 805 805 806 808 813 821 827 831 834 836 839 841 838 833 831 827 819 819 823 827 831 830 826 826 824 824 831 836 837 838 839 842 841 834 828 828 829 820 808 811 818 820 821 821 822 825 818 809 815 819 810 816 825 817 818 834 848 846 826 824 851 872 881 883 877 879 882 881 884 883 882 884 884 885 886 885 886 887 887
809 809 809 809 809 807 806 806 805 804 805 806 809 821 833 838 840 842 844 844 845 846 837 824 825 826 826 825 823 826 829 827 827 825 825 832 835 836 840 841 843 844 843 840 833 832 829 815 811 817 813 818 830 826 822 826 820 813 813 814 823 828 821 818 822 830 836 827 827 850 870 877 874 870 877 883 882 884 885 884 884 884 886 886 886 886 886 888
809 809 809 809 809 808 806 805 805 805 805 809 819 833 840 842 846 849 849 848 847 845 837 829 829 831 833 831 827 833 834 825 826 830 828 830 832 836 842 842 843 847 849 846 835 835 839 822 812 819 817 817 828 822 815 824 826 819 818 822 823 818 814 819 820 820 827 828 828 847 869 873 865 867 879 883 883 886 885 884 884 885 887 887 886 886 886 887
809 809 809 810 808 807 806 805 806 805 805 813 826 835 842 844 848 852 852 850 848 842 837 837 838 835 836 837 834 839 841 832 832 834 831 831 833 839 847 847 844 846 851 850 840 836 840 830 817 818 822 820 819 817 816 821 824 823 822 824 825 824 822 825 828 828 830 829 831 841 854 864 868 874 879 881 885 887 885 885 885 883 886 886 885 885 885 887
809 810 810 810 807 807 807 804 805 807 812 826 835 838 844 847 847 853 855 852 848 843 839 843 844 838 837 842 843 843 844 841 839 837 834 836 836 839 851 856 850 848 850 849 844 840 839 836 825 818 820 820 818 825 831 830 828 825 822 825 829 831 832 833 836 840 835 830 837 839 837 858 880 879 877 883 886 885 885 886 885 884 885 886 885 886 886 887
810 810 810 810 807 807 806 806 817 826 828 837 843 842 847 847 846 851 855 854 850 848 846 846 845 842 840 842 845 847 845 841 841 840 837 839 838 838 853 864 860 857 851 842 844 846 841 840 837 828 821 819 825 838 841 837 837 833 830 838 844 838 834 833 835 844 843 836 844 844 835 859 886 882 880 887 884 883 887 886 886 886 885 886 887 886 887 888
811 813 813 809 807 806 805 814 836 844 837 838 844 846 848 849 848 849 851 853 851 849 849 847 846 848 846 843 845 849 847 841 840 841 840 844 844 845 858 869 868 865 856 845 847 852 849 848 845 836 830 829 834 843 846 844 843 840 842 853 856 846 840 836 832 840 845 841 848 850 842 863 889 886 883 886 884 885 886 885 888 887 886 887 887 887 888 889
813 814 811 809 808 806 807 819 836 841 840 846 851 851 852 850 848 847 849 849 848 847 846 845 847 847 846 848 848 847 846 842 840 842 843 847 850 856 866 871 869 865 856 849 850 852 849 848 844 835 831 834 838 842 846 847 843 842 850 863 865 859 856 852 847 849 848 845 851 851 845 862 886 887 884 886 886 886 885 886 889 887 887 888 887 888 889 889
818 817 814 811 806 804 810 821 828 834 843 848 846 847 851 852 849 847 847 848 849 849 844 844 849 847 848 853 850 847 847 841 839 846 849 848 852 861 868 869 865 859 854 853 854 852 846 845 845 839 832 830 832 834 837 839 845 851 859 870 873 871 866 860 859 856 850 856 866 857 848 863 882 886 885 886 886 887 887 887 888 888 888 888 888 890 890 889
819 818 818 816 810 810 822 832 831 832 840 842 840 844 848 848 852 852 850 850 855 855 848 847 851 852 852 853 850 850 851 844 842 848 853 851 853 861 864 864 863 859 858 861 861 856 851 849 849 844 839 837 834 837 842 845 853 860 865 872 875 873 866 856 851 847 848 865 875 862 855 868 882 885 885 886 888 888 888 888 888 890 889 889 890 890 890 891
818 819 821 820 818 822 834 844 839 833 837 838 838 846 847 843 850 857 854 852 855 856 853 852 853 852 850 849 847 847 850 853 851 851 854 854 852 858 862 862 862 860 860 863 864 859 854 856 858 852 850 852 850 854 860 858 858 863 867 873 876 878 875 862 852 853 862 873 869 863 869 876 877 883 886 887 890 890 890 890 889 890 889 889 891 891 891 892
821 826 831 827 825 829 835 842 842 838 840 841 840 848 849 844 847 851 851 852 855 857 854 853 855 854 851 852 849 847 850 855 855 855 860 863 858 858 862 863 861 860 860 862 864 860 851 852 863 864 864 870 870 870 871 867 869 876 877 878 878 877 873 864 862 868 877 874 862 866 882 879 875 885 890 891 893 892 891 892 890 890 890 890 892 892 892 892
825 831 839 835 831 835 836 839 845 844 844 846 848 852 850 847 849 850 851 853 855 855 852 849 856 861 862 861 855 851 852 852 853 859 864 867 864 859 857 858 858 859 860 858 861 862 852 852 866 870 868 874 876 874 875 874 880 887 885 883 884 880 873 872 876 881 882 876 867 872 883 881 881 891 894 893 895 893 893 893 891 891 890 891 893 893 893 893
830 833 840 839 838 844 847 849 850 845 844 847 849 853 853 850 853 857 858 854 851 854 853 850 858 865 866 865 858 855 858 854 853 863 868 868 869 866 861 858 858 861 860 857 862 866 857 855 869 870 865 871 876 875 878 878 881 888 889 887 887 884 881 880 881 882 883 879 876 881 885 885 890 896 896 894 894 893 892 892 891 891 891 892 894 894 894 893
829 830 836 837 841 850 853 853 849 841 845 851 850 854 860 856 855 861 865 859 852 855 859 857 862 867 866 864 859 860 867 865 861 866 871 870 870 871 869 866 865 863 860 860 864 865 856 857 872 873 861 864 875 878 880 881 879 883 889 890 889 886 885 885 883 884 885 880 880 886 886 886 893 897 895 893 892 893 893 893 892 892 892 894 895 895 894 893
829 831 832 831 841 852 851 852 852 843 847 857 856 858 861 859 861 864 865 866 863 860 863 863 864 866 865 864 864 866 872 873 869 870 873 872 871 873 872 872 873 865 861 866 868 865 860 860 871 871 853 855 874 877 879 884 880 877 884 890 891 888 886 888 888 887 887 884 885 887 886 889 896 896 894 894 894 895 895 895 893 893 894 896 895 895 894 892
831 831 832 830 840 856 856 853 853 848 853 865 866 863 862 862 867 865 859 863 869 866 867 868 865 864 863 864 868 872 873 874 873 873 875 875 875 877 875 876 878 870 866 870 871 877 877 864 865 871 855 852 872 880 881 880 867 865 881 893 894 891 890 891 891 888 890 890 890 890 891 896 899 897 896 897 896 897 898 896 894 895 896 896 896 896 894 892